Regional Weather Roundup
Issued by NWS

Home | Current Version | Previous Version | Text Only | Print | Product List | Glossary Off
Versions: 1 2 3 4 5 6 7 8 9 10 11 12 13 14 15 16 17 18 19 20 21 22 23 24 25 26 27 28 29 30 31 32 33 34 35 36 37 38 39 40 41 42 43 44 45 46 47 48 49 50

000
ASUS43 KLMK 281402
RWRKY
KENTUCKY REGIONAL WEATHER ROUNDUP
NATIONAL WEATHER SERVICE LOUISVILLE KY
1000 AM EDT WED JUN 28 2017

NOTE "FAIR" INDICATES FEW OR NO CLOUDS BELOW 12,000 FEET
WITH NO SIGNIFICANT WEATHER AND/OR OBSTRUCTIONS TO VISIBILITY.

KYZ001>023-026-027-061>063-070>075-281500-
WESTERN AND SOUTH CENTRAL KENTUCKY

CITY           SKY/WX    TMP DP  RH WIND       PRES   REMARKS
PADUCAH        SUNNY     76  59  55 S9        30.09R
HENDERSON      SUNNY     72  59  63 S7        30.13R
OWENSBORO      SUNNY     73  60  63 S10       30.14R
HOPKINSVILLE   SUNNY     74  57  56 S9        30.14R
BOWLING GREEN  CLOUDY    73  60  63 CALM      30.15S
GLASGOW        NOT AVBL
$$

KYZ024-025-028>034-038-045-046-053-281500-
NORTH CENTRAL KENTUCKY

CITY           SKY/WX    TMP DP  RH WIND       PRES   REMARKS
LOUISVILLE/SDF CLOUDY    72  55  55 SE10      30.15S
LOUISVILLE/LOU MOSUNNY   72  55  55 VRB7      30.16R
FORT KNOX      SUNNY     71  56  59 S8        30.14R
$$

KYZ035>037-039>044-047>052-055>060-089>105-281500-
NORTHEAST KENTUCKY

CITY           SKY/WX    TMP DP  RH WIND       PRES   REMARKS
LEXINGTON      SUNNY     71  52  50 S7        30.19F
COVINGTON      PTSUNNY   70  55  59 S9        30.17S
FRANKFORT      SUNNY     71  52  50 S12       30.17S
$$

KYZ054-064>069-076>088-106>120-281500-
SOUTHEAST KENTUCKY

CITY           SKY/WX    TMP DP  RH WIND       PRES   REMARKS
JACKSON        SUNNY     68  56  65 VRB3      30.23R
LONDON         SUNNY     67  54  63 CALM      30.21F
SOMERSET       SUNNY     64  55  72 S3        30.21F
MIDDLESBORO    SUNNY     62  54  76 CALM      30.24F
MONTICELLO     SUNNY     71  56  58 SE8       30.21S
$$




USA.gov is the U.S. government's official web portal to all federal, state and local government web resources and services.